| time (UTC) | temp F | wind direction | speed MPH | gust MPH | rain 1hr in | rain 24hr in | rain mn in | humidity % | barometer mb |
| 20260507083017 | 42 | 117 | 0.0 | 1.0 | 0.00 | 0.02 | 0.00 | 97 | |
| 20260507082017 | 42 | 134 | 0.0 | 0.0 | 0.00 | 0.02 | 0.00 | 96 | |
| 20260507081017 | 42 | 134 | 0.0 | 0.0 | 0.00 | 0.02 | 0.00 | 96 | |
| 20260507080016 | 43 | 0.0 | 0.0 | 0.00 | 0.02 | 0.00 | 96 | ||
| 20260507075017 | 43 | 134 | 0.0 | 0.0 | 0.00 | 0.02 | 0.00 | 96 | |
| 20260507074017 | 43 | 134 | 0.0 | 0.0 | 0.00 | 0.03 | 0.00 | 96 | |
| 20260507073017 | 43 | 44 | 0.0 | 0.0 | 0.00 | 0.04 | 0.00 | 97 | |
| 20260507072037 | 43 | 351 | 0.0 | 0.0 | 0.00 | 0.04 | 0.00 | 96 | |
| 20260507071036 | 43 | 179 | 0.0 | 1.0 | 0.00 | 0.05 | 0.00 | 97 | |
| 20260507070017 | 43 | 134 | 0.0 | 1.0 | 0.00 | 0.07 | 0.00 | 96 | |
| 20260507065016 | 43 | 0.0 | 0.0 | 0.00 | 0.10 | 0.00 | 96 | ||
| 20260507064016 | 44 | 0.0 | 0.0 | 0.00 | 0.10 | 0.00 | 96 | ||
| 20260507063017 | 44 | 0.0 | 0.0 | 0.00 | 0.10 | 0.00 | 96 | ||
| 20260507062018 | 44 | 179 | 0.0 | 0.0 | 0.00 | 0.11 | 0.00 | 95 | |
| 20260507061037 | 44 | 0.0 | 0.0 | 0.00 | 0.11 | 0.00 | 95 | ||
| 20260507060017 | 44 | 0.0 | 0.0 | 0.00 | 0.12 | 0.00 | 95 | ||
| 20260507055017 | 45 | 0.0 | 0.0 | 0.00 | 0.15 | 0.00 | 95 | ||
| 20260507054017 | 45 | 88 | 0.0 | 0.0 | 0.00 | 0.17 | 0.00 | 95 | |
| 20260507053017 | 45 | 0.0 | 0.0 | 0.00 | 0.18 | 0.00 | 96 | ||
| 20260507052017 | 46 | 0.0 | 0.0 | 0.00 | 0.21 | 0.00 | 95 | ||
| 20260507051017 | 46 | 0.0 | 0.0 | 0.00 | 0.23 | 0.00 | 96 | ||
| 20260507050037 | 46 | 0.0 | 0.0 | 0.00 | 0.27 | 0.00 | 97 | ||
| 20260507045037 | 46 | 134 | 0.0 | 0.0 | 0.00 | 0.33 | 0.00 | 98 | |
| 20260507044017 | 46 | 134 | 0.0 | 1.0 | 0.00 | 0.41 | 0.00 | 97 | |
| 20260507043017 | 47 | 0.0 | 0.0 | 0.00 | 0.43 | 0.00 | 97 | ||
| 20260507042017 | 47 | 0.0 | 0.0 | 0.00 | 0.47 | 0.00 | 97 | ||
| 20260507041017 | 47 | 0.0 | 0.0 | 0.00 | 0.49 | 0.00 | 96 | ||
| 20260507040017 | 47 | 134 | 0.0 | 0.0 | 0.00 | 0.52 | 0.00 | 97 | |
| 20260507035017 | 47 | 0.0 | 0.0 | 0.00 | 0.55 | 0.00 | 97 | ||
| 20260507034017 | 47 | 0.0 | 0.0 | 0.00 | 0.56 | 0.00 | 95 | ||
| 20260507033057 | 48 | 0.0 | 0.0 | 0.00 | 0.58 | 0.00 | 95 | ||
| 20260507032017 | 48 | 0.0 | 0.0 | 0.00 | 0.58 | 0.00 | 94 | ||
| 20260507031016 | 49 | 0.0 | 0.0 | 0.00 | 0.59 | 0.00 | 95 | ||
| 20260507030017 | 49 | 0.0 | 0.0 | 0.00 | 0.62 | 0.00 | 95 | ||
| 20260507025017 | 49 | 0.0 | 0.0 | 0.00 | 0.62 | 0.00 | 94 | ||
| 20260507024016 | 50 | 0.0 | 0.0 | 0.00 | 0.63 | 0.00 | 93 | ||
| 20260507023017 | 50 | 0.0 | 0.0 | 0.00 | 0.65 | 0.00 | 93 | ||
| 20260507022057 | 51 | 0.0 | 0.0 | 0.00 | 0.68 | 0.00 | 94 | ||
| 20260507021016 | 52 | 134 | 0.0 | 0.0 | 0.00 | 0.70 | 0.00 | 95 | |
| 20260507020018 | 52 | 134 | 0.0 | 0.0 | 0.00 | 0.71 | 0.00 | 96 | |
| 20260507015016 | 53 | 0.0 | 0.0 | 0.00 | 0.73 | 0.00 | 96 | ||
| 20260507014017 | 53 | 134 | 0.0 | 0.0 | 0.00 | 0.77 | 0.00 | 96 | |
| 20260507013017 | 53 | 134 | 0.0 | 0.0 | 0.00 | 0.78 | 0.00 | 93 | |
| 20260507012016 | 54 | 0.0 | 0.0 | 0.00 | 0.78 | 0.00 | 92 | ||
| 20260507011017 | 55 | 88 | 0.0 | 0.0 | 0.00 | 0.79 | 0.00 | 91 | |
| 20260507010017 | 56 | 0.0 | 0.0 | 0.00 | 0.80 | 0.00 | 92 | ||
| 20260507005017 | 58 | 281 | 1.0 | 2.0 | 0.00 | 0.84 | 0.00 | 92 | |
| 20260507004017 | 59 | 269 | 1.0 | 2.0 | 0.00 | 0.88 | 0.00 | 92 | |
| 20260507003017 | 60 | 288 | 1.0 | 3.0 | 0.00 | 0.89 | 0.00 | 92 | |
| 20260507002017 | 61 | 269 | 2.0 | 4.0 | 0.00 | 0.89 | 0.00 | 92 | |
| 20260507001017 | 61 | 307 | 3.0 | 5.0 | 0.00 | 0.89 | 0.00 | 92 | |
| 20260507000016 | 62 | 279 | 2.0 | 3.0 | 0.00 | 0.91 | 0.00 | 91 | |
| 20260506235018 | 63 | 279 | 2.0 | 4.0 | 0.00 | 0.92 | 0.91 | 89 | |
| 20260506234017 | 64 | 267 | 2.0 | 4.0 | 0.00 | 0.93 | 0.91 | 89 | |
| 20260506233017 | 65 | 291 | 1.0 | 3.0 | 0.00 | 0.93 | 0.91 | 87 | |
| 20260506232017 | 65 | 349 | 2.0 | 5.0 | 0.00 | 0.95 | 0.91 | 91 | |
| 20260506231016 | 64 | 353 | 2.0 | 4.0 | 0.00 | 0.96 | 0.91 | 92 | |
| 20260506230017 | 65 | 331 | 2.0 | 5.0 | 0.00 | 0.96 | 0.91 | 92 | |
| 20260506225017 | 65 | 302 | 3.0 | 6.0 | 0.00 | 0.98 | 0.91 | 94 | |
| 20260506224016 | 64 | 317 | 2.0 | 5.0 | 0.00 | 0.98 | 0.91 | 93 | |
| 20260506223017 | 64 | 345 | 2.0 | 5.0 | 0.00 | 0.98 | 0.91 | 92 | |
| 20260506222017 | 65 | 291 | 2.0 | 4.0 | 0.00 | 0.98 | 0.91 | 92 | |
| 20260506221017 | 65 | 320 | 2.0 | 4.0 | 0.00 | 0.98 | 0.91 | 91 | |
| 20260506220017 | 66 | 36 | 1.0 | 3.0 | 0.00 | 0.99 | 0.91 | 91 | |
| 20260506215016 | 67 | 278 | 3.0 | 6.0 | 0.00 | 1.00 | 0.91 | 91 | |
| 20260506214018 | 67 | 280 | 1.0 | 3.0 | 0.00 | 1.00 | 0.91 | 91 | |
| 20260506213036 | 67 | 276 | 1.0 | 5.0 | 0.00 | 1.01 | 0.91 | 91 | |
| 20260506212017 | 67 | 264 | 3.0 | 4.0 | 0.00 | 1.02 | 0.91 | 92 | |
| 20260506211017 | 67 | 289 | 2.0 | 5.0 | 0.00 | 1.02 | 0.91 | 93 | |
| 20260506210016 | 66 | 295 | 3.0 | 6.0 | 0.00 | 1.03 | 0.91 | 90 | |
| 20260506205037 | 66 | 283 | 2.0 | 6.0 | 0.01 | 1.04 | 0.91 | 90 | |
| 20260506204017 | 66 | 308 | 3.0 | 5.0 | 0.01 | 1.04 | 0.91 | 89 | |
| 20260506203016 | 67 | 312 | 2.0 | 5.0 | 0.01 | 1.04 | 0.91 | 89 | |
| 20260506202017 | 67 | 337 | 2.0 | 3.0 | 0.01 | 1.05 | 0.91 | 89 | |
| 20260506201037 | 67 | 352 | 2.0 | 4.0 | 0.01 | 1.05 | 0.91 | 87 | |
| 20260506200057 | 68 | 287 | 3.0 | 7.0 | 0.01 | 1.06 | 0.91 | 86 | |
| 20260506195037 | 70 | 297 | 3.0 | 6.0 | 0.00 | 1.06 | 0.90 | 85 | |
| 20260506194017 | 72 | 294 | 4.0 | 6.0 | 0.00 | 1.09 | 0.90 | 85 | |
| 20260506193018 | 72 | 310 | 2.0 | 5.0 | 0.00 | 1.11 | 0.90 | 89 | |
| 20260506192037 | 72 | 289 | 3.0 | 6.0 | 0.00 | 1.15 | 0.90 | 89 | |
| 20260506191017 | 70 | 325 | 2.0 | 4.0 | 0.00 | 1.17 | 0.90 | 93 | |
| 20260506190037 | 69 | 307 | 2.0 | 5.0 | 0.00 | 1.17 | 0.90 | 91 | |
| 20260506185016 | 70 | 300 | 3.0 | 5.0 | 0.00 | 1.17 | 0.90 | 92 | |
| 20260506184037 | 70 | 339 | 2.0 | 4.0 | 0.00 | 1.17 | 0.90 | 91 | |
| 20260506183017 | 72 | 351 | 2.0 | 5.0 | 0.00 | 1.17 | 0.90 | 89 | |
| 20260506182016 | 73 | 330 | 2.0 | 5.0 | 0.00 | 1.17 | 0.90 | 91 | |
| 20260506181017 | 74 | 339 | 2.0 | 5.0 | 0.00 | 1.17 | 0.90 | 90 | |
| 20260506180017 | 75 | 283 | 2.0 | 4.0 | 0.00 | 1.17 | 0.90 | 93 | |
| 20260506175017 | 74 | 287 | 3.0 | 7.0 | 0.00 | 1.17 | 0.90 | 93 | |
| 20260506174017 | 73 | 19 | 2.0 | 4.0 | 0.00 | 1.17 | 0.90 | 94 | |
| 20260506173016 | 72 | 338 | 2.0 | 6.0 | 0.00 | 1.17 | 0.90 | 93 | |
| 20260506172038 | 72 | 56 | 2.0 | 6.0 | 0.00 | 1.17 | 0.90 | 94 | |
| 20260506171017 | 71 | 291 | 2.0 | 5.0 | 0.00 | 1.17 | 0.90 | 92 | |
| 20260506170017 | 72 | 314 | 2.0 | 4.0 | 0.00 | 1.17 | 0.90 | 95 | |
| 20260506165017 | 70 | 38 | 2.0 | 6.0 | 0.00 | 1.17 | 0.90 | 94 | |
| 20260506164017 | 70 | 306 | 2.0 | 4.0 | 0.00 | 1.17 | 0.90 | 92 | |
| 20260506163017 | 71 | 344 | 2.0 | 4.0 | 0.01 | 1.17 | 0.90 | 94 | |
| 20260506162017 | 69 | 329 | 2.0 | 5.0 | 0.01 | 1.17 | 0.90 | 93 | |
| 20260506161016 | 68 | 326 | 3.0 | 5.0 | 0.01 | 1.17 | 0.90 | 94 | |
| 20260506160017 | 67 | 297 | 3.0 | 6.0 | 0.01 | 1.17 | 0.90 | 92 | |
| 20260506155016 | 67 | 334 | 2.0 | 6.0 | 0.01 | 1.17 | 0.90 | 89 | |
| 20260506154017 | 69 | 1 | 2.0 | 7.0 | 0.01 | 1.17 | 0.90 | 90 | |
| 20260506153017 | 68 | 14 | 2.0 | 4.0 | 0.00 | 1.16 | 0.89 | 91 | |
| 20260506152016 | 66 | 46 | 2.0 | 4.0 | 0.00 | 1.16 | 0.89 | 93 | |
| 20260506151018 | 66 | 303 | 3.0 | 8.0 | 0.00 | 1.16 | 0.89 | 92 | |
| 20260506150016 | 65 | 301 | 3.0 | 6.0 | 0.00 | 1.16 | 0.89 | 94 | |
| 20260506145017 | 64 | 102 | 2.0 | 3.0 | 0.00 | 1.16 | 0.89 | 95 | |
| 20260506144017 | 63 | 346 | 3.0 | 6.0 | 0.00 | 1.16 | 0.89 | 94 | |
| 20260506143016 | 63 | 328 | 3.0 | 8.0 | 0.00 | 1.16 | 0.89 | 97 | |
| 20260506142017 | 60 | 23 | 2.0 | 5.0 | 0.00 | 1.16 | 0.89 | 98 | |
| 20260506141016 | 59 | 325 | 1.0 | 3.0 | 0.00 | 1.16 | 0.89 | 98 | |
| 20260506140017 | 58 | 316 | 3.0 | 5.0 | 0.00 | 1.16 | 0.89 | 97 | |
| 20260506135017 | 58 | 325 | 2.0 | 5.0 | 0.00 | 1.16 | 0.89 | 97 | |
| 20260506134017 | 58 | 346 | 2.0 | 5.0 | 0.00 | 1.16 | 0.89 | 98 | |
| 20260506133017 | 57 | 298 | 3.0 | 7.0 | 0.00 | 1.16 | 0.89 | 97 | |
| 20260506132016 | 57 | 331 | 2.0 | 5.0 | 0.00 | 1.16 | 0.89 | 99 | |
| 20260506131017 | 55 | 296 | 2.0 | 4.0 | 0.00 | 1.16 | 0.89 | 98 | |
| 20260506130018 | 55 | 13 | 1.0 | 2.0 | 0.00 | 1.16 | 0.89 | 97 | |
| 20260506125016 | 55 | 308 | 2.0 | 5.0 | 0.00 | 1.16 | 0.89 | 97 | |
| 20260506124017 | 55 | 330 | 2.0 | 4.0 | 0.00 | 1.16 | 0.89 | 98 | |
| 20260506123016 | 54 | 293 | 2.0 | 3.0 | 0.00 | 1.16 | 0.89 | 98 | |
| 20260506122017 | 53 | 321 | 2.0 | 4.0 | 0.00 | 1.16 | 0.89 | 98 | |
| 20260506121017 | 53 | 306 | 2.0 | 4.0 | 0.00 | 1.16 | 0.89 | 97 | |
| 20260506120016 | 52 | 316 | 2.0 | 4.0 | 0.00 | 1.16 | 0.89 | 97 | |
| 20260506115037 | 52 | 354 | 1.0 | 4.0 | 0.00 | 1.16 | 0.89 | 96 | |
| 20260506114017 | 51 | 297 | 1.0 | 3.0 | 0.00 | 1.17 | 0.89 | 97 | |
| 20260506113017 | 51 | 316 | 1.0 | 2.0 | 0.00 | 1.17 | 0.89 | 97 | |
| 20260506112017 | 51 | 65 | 1.0 | 2.0 | 0.00 | 1.17 | 0.89 | 96 | |
| 20260506111016 | 51 | 0 | 1.0 | 4.0 | 0.00 | 1.17 | 0.89 | 96 | |
| 20260506110017 | 50 | 351 | 1.0 | 3.0 | 0.00 | 1.17 | 0.89 | 96 | |
| 20260506105017 | 50 | 319 | 1.0 | 2.0 | 0.00 | 1.17 | 0.89 | 96 | |
| 20260506104017 | 50 | 332 | 1.0 | 3.0 | 0.00 | 1.17 | 0.89 | 96 | |
| 20260506103037 | 50 | 41 | 1.0 | 2.0 | 0.00 | 1.17 | 0.89 | 98 | |
| 20260506102016 | 50 | 277 | 1.0 | 2.0 | 0.00 | 1.17 | 0.89 | 98 | |
| 20260506101017 | 48 | 334 | 1.0 | 4.0 | 0.00 | 1.17 | 0.89 | ||
| 20260506100017 | 49 | 40 | 1.0 | 3.0 | 0.00 | 1.18 | 0.89 | ||
| 20260506095016 | 49 | 309 | 2.0 | 4.0 | 0.00 | 1.20 | 0.89 | ||
| 20260506094017 | 48 | 294 | 2.0 | 4.0 | 0.00 | 1.22 | 0.89 | ||
| 20260506093016 | 48 | 28 | 0.0 | 1.0 | 0.00 | 1.23 | 0.89 | ||
| 20260506092017 | 48 | 349 | 1.0 | 2.0 | 0.00 | 1.23 | 0.89 | ||
| 20260506091017 | 48 | 321 | 1.0 | 2.0 | 0.00 | 1.23 | 0.89 | ||
| 20260506090036 | 48 | 345 | 1.0 | 4.0 | 0.00 | 1.23 | 0.89 | ||
| 20260506085017 | 48 | 356 | 1.0 | 4.0 | 0.00 | 1.23 | 0.89 | ||
| 20260506084017 | 48 | 35 | 1.0 | 2.0 | 0.01 | 1.23 | 0.89 |